Regional Weather Roundup
Issued by NWS Huntsville, AL

Home | Current Version | Previous Version | Text Only | Print | Product List | Glossary On
Versions: 1 2 3 4 5 6 7 8 9 10 11 12 13 14 15 16 17 18 19 20 21 22 23 24 25 26 27 28 29 30 31 32 33 34 35 36 37 38 39 40 41 42 43 44 45 46 47 48 49 50
000
ASUS44 KHUN 101710
RWRHUN

WEATHER ROUNDUP FOR THE TENNESSEE VALLEY
NATIONAL WEATHER SERVICE HUNTSVILLE AL
1100 AM CST SAT DEC 10 2016

ALZ001>004-101800-
NORTHWEST ALABAMA

CITY           SKY/WX    TMP DP  RH WIND       PRES   REMARKS
RUSSELLVILLE     N/A     36 N/A N/A MISG        N/A
SHOALS AIRPORT SUNNY     38  20  48 E6        30.57F WCI  33
SHOALS TVA RES   N/A     36 N/A N/A MISG        N/A
$$

ALZ005>007-016-101800-
NORTH CENTRAL ALABAMA

CITY           SKY/WX    TMP DP  RH WIND       PRES   REMARKS
CULLMAN AG STN   N/A     37 N/A N/A NE5         N/A  WCI  34
DECATUR AP     SUNNY     38  20  48 VRB5      30.57F WCI  34
HUNTSVILLE AP  MOSUNNY   39  18  42 CALM      30.55F
MERIDIANVILLE  SUNNY     36  19  51 NE5       30.56F WCI  32
REDSTONE ARSN  SUNNY     37  16  42 NE7       30.54F WCI  32
VINEMONT AP    FAIR      38  15  37 NE6       30.54F WCI  34
$$

ALZ008>010-101800-
NORTHEAST ALABAMA

CITY           SKY/WX    TMP DP  RH WIND       PRES   REMARKS
ALBERTVILLE    SUNNY     36  23  60 CALM      30.52F
FORT PAYNE     SUNNY     37   9  30 CALM      30.53F
SCOTTSBORO AP  SUNNY     37  18  44 NE5       30.57F WCI  34
SCOTTSBORO HCN   N/A     36 N/A N/A MISG        N/A
VALLEY HEAD      N/A     36 N/A N/A MISG        N/A
$$

TNZ076-096-097-101800-
SOUTHEASTERN MIDDLE TENNESSEE

CITY           SKY/WX    TMP DP  RH WIND       PRES   REMARKS
TULLAHOMA      SUNNY     34  16  47 VRB3      30.54F
WINCHESTER     SUNNY     34  16  47 N7        30.55F WCI  28
$$

...SURROUNDING SITES...

CITY           SKY/WX    TMP DP  RH WIND       PRES   REMARKS
ATLANTA        SUNNY     43  19  38 N8        30.51F
ANNISTON       SUNNY     43  16  33 VRB7      30.55F
BIRMINGHAM     SUNNY     43  13  29 NE9       30.56F
CHATTANOOGA    MOSUNNY   37  18  46 VRB3      30.57F
CORINTH        FAIR      37  18  44 CALM      30.56F
DALTON         SUNNY     37  21  52 N5        30.55F WCI  34
GADSDEN        SUNNY     40  18  41 VRB3      30.56F
GOLDEN TRNGL   SUNNY     41  19  42 CALM      30.53F
HALEYVILLE     FAIR      39  18  42 E6        30.54F WCI  35
JACKSON TN     SUNNY     36  20  52 VRB3      30.58F
MEMPHIS        MOSUNNY   39  19  44 VRB5      30.57S
NASHVILLE      PTSUNNY   35  15  44 VRB5      30.59F WCI  31
OXFORD MS      FAIR      39  16  38 S5        30.56F
ROME           SUNNY     40  19  43 W3        30.56F
SAVANNAH       SUNNY     37  19  48 VRB3      30.56F
TUPELO         SUNNY     39  17  41 VRB5      30.56F
TUSCALOOSA     SUNNY     43  19  38 VRB6      30.56F
$$

...GULF COAST WEATHER...

CITY           SKY/WX    TMP DP  RH WIND       PRES   REMARKS
GULFPORT       SUNNY     49  20  31 NE10      30.52F
PASCAGOULA     SUNNY     50  17  27 NE9       30.52F
MOBILE         MOSUNNY   48  19  31 NE12      30.52F
GULF SHORES    SUNNY     48  21  33 NE10G16   30.51F
PENSACOLA      SUNNY     51  17  26 N10       30.49F
DESTIN         SUNNY     53  25  33 N8        30.49F
PANAMA CITY    SUNNY     53  25  33 NE9       30.46F
APPALACHICOLA  SUNNY     55  25  31 NE12      30.44F
$$




USA.gov is the U.S. government's official web portal to all federal, state and local government web resources and services.